EW5580 Weather Reports


time (UTC)temp
F
wind
direction
speed
knots
gust
knots
rain 1hr
in
rain 24hr
in
rain mn
in
humidity
%
barometer
mb
20260507144540 58 27 3.5 9.6 0.00 0.30 0.20 67 1006.3
20260507143039 58 360 3.5 11.3 0.00 0.30 0.20 68 1006.3
20260507141539 58 360 2.6 7.8 0.00 0.30 0.20 69 1006.4
20260507140038 56 360 1.7 6.1 0.00 0.30 0.20 74 1006.4
20260507134537 55 360 0.9 4.3 0.00 0.30 0.20 77 1006.4
20260507133035 54 360 1.7 7.0 0.00 0.30 0.20 82 1006.6
20260507131532 52 360 0.0 4.3 0.00 0.30 0.20 88 1006.6
20260507130039 52 335 1.7 7.0 0.00 0.30 0.20 90 1006.8
20260507124531 51 21 0.0 4.3 0.00 0.30 0.20 93 1006.6
20260507123031 51 360 0.9 3.5 0.00 0.30 0.20 94 1006.8
20260507121530 50 360 0.0 2.6 0.00 0.30 0.20 96 1007.0
20260507120029 50 360 0.0 0.9 0.00 0.30 0.20 96 1006.6
20260507114528 50 360 0.0 0.0 0.01 0.30 0.20 96 1006.6
20260507113027 50 360 0.0 0.0 0.01 0.30 0.20 96 1006.6
20260507111527 49 360 0.0 0.0 0.02 0.30 0.20 96 1006.4
20260507110025 49 360 0.0 0.0 0.03 0.30 0.20 96 1006.4
20260507104524 49 360 0.0 0.0 0.02 0.28 0.19 96 1006.0
20260507103029 49 294 0.0 0.0 0.03 0.28 0.19 96 1006.2
20260507101522 49 294 0.0 0.0 0.03 0.28 0.18 96 1006.5
20260507100027 49 295 0.0 0.9 0.02 0.27 0.17 95 1006.1
20260507094520 49 296 0.9 3.5 0.04 0.27 0.17 94 1006.1
20260507093018 49 294 0.0 2.6 0.06 0.26 0.16 94 1005.9
20260507091524 49 290 0.0 3.5 0.08 0.25 0.15 94 1005.9
20260507090018 50 329 0.0 2.6 0.09 0.25 0.15 93 1005.5
20260507084516 50 327 0.0 2.6 0.08 0.23 0.13 92 1005.8
20260507083011 50 333 0.0 2.6 0.07 0.20 0.10 91 1005.8
20260507081509 51 336 0.0 2.6 0.06 0.17 0.07 90 1005.6
20260507080007 51 346 0.9 4.3 0.05 0.16 0.06 89 1006.0
20260507074504 52 360 0.0 5.2 0.04 0.15 0.05 87 1005.8
20260507073100 54 49 1.7 7.8 0.02 0.13 0.03 87 1005.7
20260507071610 55 346 1.7 7.0 0.00 0.11 0.01 89 1004.7
20260507070056 55 360 0.0 3.5 0.00 0.11 0.01 90 1004.5
20260507064554 55 304 0.0 4.3 0.00 0.11 0.01 88 1004.6
20260507063055 56 360 1.7 7.0 0.00 0.11 0.01 89 1004.8
20260507061556 56 360 1.7 4.3 0.00 0.11 0.01 90 1004.7
20260507060047 57 360 0.0 2.6 0.00 0.11 0.01 93 1004.7
20260507054545 57 360 0.9 3.5 0.00 0.11 0.01 94 1005.0
20260507053110 58 360 0.9 2.6 0.00 0.11 0.01 94 1005.1
20260507051544 58 360 0.0 2.6 0.00 0.11 0.01 94 1005.1
20260507050043 58 360 1.7 5.2 0.01 0.11 0.01 94 1004.8
20260507044535 59 360 0.0 4.3 0.01 0.11 0.01 96 1004.8
20260507043036 60 360 0.0 4.3 0.01 0.11 0.01 96 1004.8
20260507041532 60 360 0.0 2.6 0.01 0.11 0.01 96 1004.7
20260507040031 60 360 0.0 3.5 0.00 0.10 0.00 95 1004.8
20260507034536 60 72 0.9 4.3 0.00 0.10 0.10 95 1005.1
20260507033039 60 360 0.9 5.2 0.00 0.10 0.10 95 1005.0
20260507031528 60 360 0.0 3.5 0.00 0.10 0.10 95 1004.7
20260507030029 59 360 0.0 4.3 0.00 0.10 0.10 96 1004.6
20260507024527 59 360 0.0 2.6 0.00 0.10 0.10 96 1004.5
20260507023033 59 360 0.0 1.7 0.00 0.10 0.10 96 1004.6
20260507021525 59 360 0.0 1.7 0.00 0.10 0.10 96 1004.6
20260507020026 59 360 0.0 0.0 0.00 0.10 0.10 96 1004.6
20260507014525 58 360 0.0 2.6 0.00 0.10 0.10 97 1004.6
20260507013024 58 360 0.0 1.7 0.00 0.10 0.10 97 1004.7
20260507011528 58 360 0.0 1.7 0.00 0.10 0.10 96 1005.0
20260507010026 58 360 0.0 0.9 0.00 0.10 0.10 96 1005.1
20260507004532 58 360 0.0 3.5 0.01 0.10 0.10 96 1005.1
20260507003022 58 360 0.0 2.6 0.02 0.10 0.10 96 1004.9
20260507001521 58 360 0.0 7.0 0.03 0.10 0.10 96 1004.8
20260507000020 58 360 0.0 3.5 0.04 0.10 0.10 95 1004.8
20260506234519 58 360 0.0 1.7 0.03 0.09 0.09 95 1004.7
20260506233018 59 360 0.0 2.6 0.02 0.08 0.08 94 1004.5
20260506231516 59 360 0.0 5.2 0.01 0.07 0.07 94 1004.6
20260506230039 59 360 0.0 2.6 0.00 0.06 0.06 94 1004.8
20260506224514 60 360 0.0 3.5 0.00 0.06 0.06 94 1004.7
20260506223014 60 360 0.9 2.6 0.01 0.06 0.06 94 1004.5
20260506221511 60 360 0.0 2.6 0.01 0.06 0.06 94 1004.8
20260506220025 60 51 0.0 2.6 0.02 0.06 0.06 94 1005.0
20260506214509 60 360 0.0 7.0 0.03 0.06 0.06 93 1004.8
20260506213107 61 360 0.9 4.3 0.03 0.05 0.05 92 1005.2
20260506211508 61 360 0.0 5.2 0.03 0.05 0.05 92 1005.4
20260506210011 61 360 1.7 9.6 0.02 0.04 0.04 91 1005.4
20260506204504 61 360 0.9 7.0 0.02 0.03 0.03 90 1005.5
20260506203003 61 360 0.9 9.6 0.01 0.02 0.02 89 1005.5
20260506201502 62 360 0.9 4.3 0.02 0.02 0.02 88 1005.5
20260506200002 63 360 1.7 5.2 0.02 0.02 0.02 87 1005.6
20260506194501 63 360 0.0 1.7 0.01 0.01 0.01 86 1005.5
20260506193101 64 360 0.0 3.5 0.01 0.01 0.01 83 1005.8
20260506191608 66 360 0.0 1.7 0.00 0.00 0.00 80 1005.8
20260506190059 67 243 0.0 11.3 0.00 0.00 0.00 75 1005.8
20260506184557 68 191 1.7 5.2 0.00 0.00 0.00 71 1005.7
20260506183106 69 208 1.7 6.1 0.00 0.00 0.00 69 1005.9
20260506181601 69 248 0.0 7.0 0.00 0.00 0.00 68 1006.0
20260506180113 70 205 0.9 4.3 0.00 0.00 0.00 66 1006.1
20260506174553 72 234 1.7 7.0 0.00 0.00 0.00 64 1006.3
20260506173119 72 231 4.3 17.4 0.00 0.00 0.00 62 1006.3
20260506171551 72 275 0.9 8.7 0.00 0.00 0.00 62 1006.4
20260506170051 73 213 1.7 11.3 0.00 0.00 0.00 63 1006.2
20260506164547 72 279 1.7 8.7 0.00 0.00 0.00 64 1006.6
20260506163047 72 213 0.9 7.8 0.00 0.00 0.00 66 1006.9
20260506161552 72 223 1.7 7.0 0.00 0.00 0.00 65 1007.0
20260506160042 72 194 2.6 7.0 0.00 0.00 0.00 65 1007.3
20260506154539 72 268 0.0 7.0 0.00 0.00 0.00 65 1007.5
20260506153038 72 189 0.0 6.1 0.00 0.00 0.00 66 1007.6
20260506151536 71 254 0.0 7.0 0.00 0.00 0.00 68 1007.8
20260506150034 72 286 0.0 4.3 0.00 0.00 0.00 66 1008.0